Project,Study,Ord_Occ,Event_Num,Cast_ID,Date_Time_UTC,Date_Time_PST,Lat_Dec,Lon_Dec,Sta_ID,Line,Sta,Depth,Pressure,PrQ,Temp1,Temp1Q,Temp2,Temp2Q,TempAve,Salt1,Salt1Q,Salt1_Corr,Salt2,Salt2Q,Salt2_Corr,SaltAve_Corr,Ox1,Ox1Q,Ox1_CruiseCorr,Ox1_StaCorr,Ox2,Ox2Q,Ox2_CruiseCorr,Ox2_StaCorr,OxAve_StaCorr,Ox1uM,Ox1uM_CruiseCorr,Ox1uM_StaCorr,Ox2uM,Ox2uM_CruiseCorr,Ox2uM_StaCorr,OxAveuM_StaCorr,FluorV,FluorQ,EstChl_CruiseCorr,EstChl_StaCorr,ISUSV,ISUSQ,EstNO3_CruiseCorr,EstNO3_StaCorr,SigThetaTS1,SigThetaTS1Q,SigThetaTS2,SigThetaTS2Q,BAT,XMiss,TransQ,pH,pHQ,SPAR,SPARQ,PAR,PARQ,PoT1,PoT2,DynHt,SVA,OxSat1,OxSat2,BTL_Depth,BTL_Temp,SaltB,OxB,OxBuM,Chl-a,Phaeo,NO3,NO2,NH4,PO4,SIL
CalCOFI,2105SH,038,,2105_038u,12-May-2021 20:34:01,12-May-2021 12:34:01,34.32489,-120.80522,080.0 055.0,080.0,055.0,512.000,516.337,,6.4107,,6.4105,,6.4106,34.2653,,34.2665,34.2654,,34.2673,34.2669,0.3933,,0.4774,0.4751,0.4056,,0.4795,0.4762,0.4757,17.103,20.3783,14.8149,17.641,23.5998,14.8866,14.8508,0.0359,,,,0.6239,,0.0000,,26.9253,,26.9254,,,,,,,,,,,6.3641,6.3639,0.8175,119.558,5.719,5.899,512,6.411,34.2644,0.505, ,,,40.58,0.00,0.00,3.20,68.08
CalCOFI,2105SH,038,,2105_038u,12-May-2021 20:34:27,12-May-2021 12:34:27,34.32496,-120.80522,080.0 055.0,080.0,055.0,511.000,515.327,,6.4120,,6.4119,,6.4120,34.2643,,34.2655,34.2645,,34.2664,34.2660,0.3932,,0.4773,0.4750,0.4049,,0.4788,0.4755,0.4753,17.100,20.3751,14.8117,17.610,23.5966,14.8533,14.8325,0.0360,,,,0.6236,,0.0000,,26.9243,,26.9245,,,,,,,,,,,6.3655,6.3654,0.8199,119.641,5.718,5.889,,,,,,,,,,,,
CalCOFI,2105SH,038,,2105_038u,12-May-2021 20:34:49,12-May-2021 12:34:49,34.32502,-120.80522,080.0 055.0,080.0,055.0,510.000,514.318,,6.4143,,6.4147,,6.4145,34.2642,,34.2654,34.2647,,34.2666,34.2660,0.3931,,0.4772,0.4749,0.4017,,0.4755,0.4722,0.4736,17.097,20.3720,14.8084,17.471,23.5933,14.7038,14.7561,0.0360,,,,0.6229,,0.0000,,26.9240,,26.9243,,,,,,,,,,,6.3679,6.3683,0.8225,119.661,5.717,5.843,,,,,,,,,,,,
CalCOFI,2105SH,038,,2105_038u,12-May-2021 20:34:49,12-May-2021 12:34:49,34.32502,-120.80522,080.0 055.0,080.0,055.0,509.000,513.308,,6.4161,,6.4153,,6.4157,34.2644,,34.2656,34.2647,,34.2666,34.2661,0.3931,,0.4772,0.4749,0.4017,,0.4755,0.4722,0.4736,17.094,20.3689,14.8052,17.468,23.5901,14.7006,14.7529,0.0354,,,,0.6228,,0.0000,,26.9238,,26.9242,,,,,,,,,,,6.3698,6.3689,0.8225,119.661,5.717,5.842,,,,,,,,,,,,
CalCOFI,2105SH,038,,2105_038u,12-May-2021 20:34:50,12-May-2021 12:34:50,34.32503,-120.80522,080.0 055.0,080.0,055.0,508.000,512.298,,6.4170,,6.4189,,6.4180,34.2643,,34.2655,34.2652,,34.2671,34.2663,0.3922,,0.4763,0.4740,0.4013,,0.4751,0.4718,0.4729,17.058,20.3312,14.7661,17.452,23.5512,14.6834,14.7248,0.0354,,,,0.6227,,0.0000,,26.9236,,26.9241,,,,,,,,,,,6.3708,6.3727,0.8225,119.667,5.705,5.837,,,,,,,,,,,,
CalCOFI,2105SH,038,,2105_038u,12-May-2021 20:34:51,12-May-2021 12:34:51,34.32504,-120.80522,080.0 055.0,080.0,055.0,507.000,511.288,,6.4216,,6.4334,,6.4275,34.2640,,34.2652,34.2692,,34.2711,34.2682,0.3868,,0.4706,0.4685,0.3941,,0.4676,0.4646,0.4666,16.823,20.0856,14.5113,17.140,23.2974,14.3479,14.4296,0.0359,,,,0.6226,,0.0000,,26.9228,,26.9254,,,,,,,,,,,6.3754,6.3872,0.8225,119.735,5.627,5.734,,,,,,,,,,,,
CalCOFI,2105SH,038,,2105_038u,12-May-2021 20:34:51,12-May-2021 12:34:51,34.32504,-120.80522,080.0 055.0,080.0,055.0,506.000,510.279,,6.4475,,6.4729,,6.4602,34.2666,,34.2678,34.2722,,34.2741,34.2710,0.3824,,0.4660,0.4640,0.3884,,0.4617,0.4588,0.4614,16.629,19.8828,14.3009,16.892,23.0879,14.0812,14.1911,0.0349,,,,0.6225,,0.0000,,26.9214,,26.9226,,,,,,,,,,,6.4013,6.4266,0.8225,119.880,5.565,5.657,,,,,,,,,,,,
CalCOFI,2105SH,038,,2105_038u,12-May-2021 20:34:52,12-May-2021 12:34:52,34.32504,-120.80522,080.0 055.0,080.0,055.0,505.000,509.269,,6.4864,,6.4860,,6.4862,34.2716,,34.2728,34.2754,,34.2773,34.2751,0.3868,,0.4706,0.4685,0.3952,,0.4687,0.4657,0.4671,16.822,20.0845,14.5102,17.186,23.2963,14.3974,14.4538,0.0357,,,,0.6223,,0.0000,,26.9203,,26.9234,,,,,,,,,,,6.4402,6.4398,0.8225,120.018,5.635,5.757,,,,,,,,,,,,
CalCOFI,2105SH,038,,2105_038u,12-May-2021 20:34:53,12-May-2021 12:34:53,34.32504,-120.80522,080.0 055.0,080.0,055.0,504.000,508.259,,6.4933,,6.4901,,6.4917,34.2745,,34.2757,34.2762,,34.2781,34.2769,0.3803,,0.4638,0.4619,0.3911,,0.4645,0.4615,0.4617,16.539,19.7887,14.2033,17.009,22.9907,14.2071,14.2052,0.0363,,,,0.6221,,0.0000,,26.9217,,26.9235,,,,,,,,,,,6.4471,6.4439,0.8225,119.880,5.541,5.698,,,,,,,,,,,,
CalCOFI,2105SH,038,,2105_038u,12-May-2021 20:34:54,12-May-2021 12:34:54,34.32504,-120.80522,080.0 055.0,080.0,055.0,503.000,507.250,,6.4986,,6.5031,,6.5009,34.2755,,34.2767,34.2782,,34.2801,34.2784,0.3795,,0.4630,0.4610,0.3879,,0.4612,0.4583,0.4597,16.503,19.7510,14.1643,16.868,22.9518,14.0554,14.1099,0.0366,,,,0.6219,,0.0000,,26.9218,,26.9233,,,,,,,,,,,6.4525,6.4570,0.8225,119.863,5.530,5.653,,,,,,,,,,,,
CalCOFI,2105SH,038,,2105_038u,12-May-2021 20:34:55,12-May-2021 12:34:55,34.32504,-120.80522,080.0 055.0,080.0,055.0,502.000,506.240,,6.4983,,6.4964,,6.4974,34.2755,,34.2767,34.2766,,34.2785,34.2776,0.3829,,0.4665,0.4645,0.3895,,0.4628,0.4599,0.4622,16.655,19.9099,14.3291,16.940,23.1160,14.1329,14.2310,0.0352,,,,0.6217,,0.0000,,26.9218,,26.9229,,,,,,,,,,,6.4523,6.4504,0.8225,119.850,5.581,5.676,,,,,,,,,,,,
CalCOFI,2105SH,038,,2105_038u,12-May-2021 20:34:56,12-May-2021 12:34:56,34.32504,-120.80522,080.0 055.0,080.0,055.0,501.000,505.230,,6.4955,,6.4897,,6.4926,34.2749,,34.2761,34.2757,,34.2776,34.2769,0.3829,,0.4665,0.4645,0.3917,,0.4651,0.4621,0.4633,16.653,19.9078,14.3270,17.036,23.1138,14.2361,14.2816,0.0361,,,,0.6214,,0.0000,,26.9217,,26.9231,,,,,,,,,,,6.4496,6.4439,0.8225,119.840,5.580,5.707,,,,,,,,,,,,
CalCOFI,2105SH,038,,2105_038u,12-May-2021 20:34:57,12-May-2021 12:34:57,34.32504,-120.80522,080.0 055.0,080.0,055.0,500.000,504.221,,6.5058,,6.4994,,6.5026,34.2757,,34.2769,34.2772,,34.2791,34.2780,0.3801,,0.4636,0.4616,0.3914,,0.4648,0.4618,0.4617,16.530,19.7793,14.1936,17.020,22.9810,14.2189,14.2063,0.0365,,,,0.6212,,0.0000,,26.9210,,26.9229,,,,,,,,,,,6.4600,6.4536,0.8225,119.906,5.540,5.704,,,,,,,,,,,,
CalCOFI,2105SH,038,,2105_038u,12-May-2021 20:34:58,12-May-2021 12:34:58,34.32505,-120.80522,080.0 055.0,080.0,055.0,499.000,503.211,,6.5156,,6.5188,,6.5172,34.2764,,34.2776,34.2795,,34.2814,34.2795,0.3730,,0.4562,0.4544,0.3844,,0.4576,0.4547,0.4546,16.223,19.4583,13.8607,16.718,22.6494,13.8941,13.8774,0.0356,,,,0.6209,,0.0000,,26.9202,,26.9222,,,,,,,,,,,6.4698,6.4730,0.8225,119.975,5.438,5.605,,,,,,,,,,,,
CalCOFI,2105SH,038,,2105_038u,12-May-2021 20:34:59,12-May-2021 12:34:59,34.32506,-120.80522,080.0 055.0,080.0,055.0,498.000,502.201,,6.5308,,6.5305,,6.5307,34.2775,,34.2787,34.2778,,34.2797,34.2792,0.3752,,0.4585,0.4566,0.3796,,0.4526,0.4499,0.4533,16.316,19.5555,13.9615,16.508,22.7498,13.6683,13.8149,0.0360,,,,0.6207,,0.0000,,26.9190,,26.9194,,,,,,,,,,,6.4851,6.4848,0.8225,120.086,5.472,5.536,,,,,,,,,,,,
CalCOFI,2105SH,038,,2105_038u,12-May-2021 20:35:00,12-May-2021 12:35:00,34.32506,-120.80522,080.0 055.0,080.0,055.0,497.000,501.192,,6.5290,,6.5391,,6.5341,34.2786,,34.2798,34.2815,,34.2834,34.2816,0.3779,,0.4613,0.4594,0.3860,,0.4592,0.4564,0.4579,16.436,19.6810,14.0916,16.788,22.8794,13.9694,14.0305,0.0353,,,,0.6205,,0.0000,,26.9201,,26.9211,,,,,,,,,,,6.4834,6.4934,0.8225,119.962,5.511,5.631,,,,,,,,,,,,
CalCOFI,2105SH,038,,2105_038u,12-May-2021 20:35:00,12-May-2021 12:35:00,34.32506,-120.80522,080.0 055.0,080.0,055.0,496.000,500.182,,6.5300,,6.5485,,6.5393,34.2796,,34.2808,34.2824,,34.2843,34.2826,0.3772,,0.4606,0.4587,0.3854,,0.4586,0.4557,0.4572,16.403,19.6465,14.0559,16.760,22.8438,13.9393,13.9976,0.0350,,,,0.6202,,0.0000,,26.9208,,26.9206,,,,,,,,,,,6.4844,6.5029,0.8225,119.892,5.500,5.623,,,,,,,,,,,,
CalCOFI,2105SH,038,,2105_038u,12-May-2021 20:35:01,12-May-2021 12:35:01,34.32506,-120.80522,080.0 055.0,080.0,055.0,495.000,499.172,,6.5452,,6.5502,,6.5477,34.2796,,34.2808,34.2815,,34.2834,34.2821,0.3710,,0.4541,0.4524,0.3785,,0.4515,0.4488,0.4506,16.137,19.3684,13.7674,16.463,22.5565,13.6199,13.6937,0.0361,,,,0.6200,,0.0000,,26.9188,,26.9196,,,,,,,,,,,6.4997,6.5047,0.8225,120.080,5.413,5.523,,,,,,,,,,,,
CalCOFI,2105SH,038,,2105_038u,12-May-2021 20:35:02,12-May-2021 12:35:02,34.32506,-120.80522,080.0 055.0,080.0,055.0,494.000,498.163,,6.5399,,6.5462,,6.5431,34.2815,,34.2827,34.2811,,34.2830,34.2829,0.3658,,0.4487,0.4470,0.3748,,0.4476,0.4450,0.4460,15.909,19.1301,13.5202,16.301,22.3103,13.4458,13.4830,0.0355,,,,0.6198,,0.0000,,26.9209,,26.9198,,,,,,,,,,,6.4945,6.5008,0.8225,119.856,5.336,5.468,,,,,,,,,,,,
CalCOFI,2105SH,038,,2105_038u,12-May-2021 20:35:03,12-May-2021 12:35:03,34.32506,-120.80522,080.0 055.0,080.0,055.0,493.000,497.153,,6.5588,,6.5591,,6.5590,34.2822,,34.2834,34.2839,,34.2858,34.2846,0.3711,,0.4542,0.4525,0.3812,,0.4542,0.4515,0.4520,16.138,19.3695,13.7685,16.577,22.5576,13.7425,13.7555,0.0354,,,,0.6196,,0.0000,,26.9190,,26.9203,,,,,,,,,,,6.5134,6.5137,0.8225,120.044,5.416,5.563,,,,,,,,,,,,
CalCOFI,2105SH,038,,2105_038u,12-May-2021 20:35:03,12-May-2021 12:35:03,34.32506,-120.80524,080.0 055.0,080.0,055.0,492.000,496.143,,6.5716,,6.5710,,6.5713,34.2849,,34.2861,34.2848,,34.2867,34.2864,0.3724,,0.4556,0.4538,0.3821,,0.4552,0.4524,0.4531,16.197,19.4311,13.8325,16.616,22.6213,13.7845,13.8085,0.0359,,,,0.6195,,0.0000,,26.9194,,26.9194,,,,,,,,,,,6.5263,6.5257,0.8225,120.007,5.437,5.578,,,,,,,,,,,,
CalCOFI,2105SH,038,,2105_038u,12-May-2021 20:35:04,12-May-2021 12:35:04,34.32507,-120.80524,080.0 055.0,080.0,055.0,491.000,495.134,,6.5776,,6.5864,,6.5820,34.2850,,34.2862,34.2870,,34.2889,34.2876,0.3723,,0.4555,0.4537,0.3819,,0.4550,0.4522,0.4530,16.193,19.4270,13.8281,16.608,22.6170,13.7759,13.8020,0.0354,,,,0.6193,,0.0000,,26.9187,,26.9192,,,,,,,,,,,6.5324,6.5411,0.8225,120.067,5.436,5.577,,,,,,,,,,,,
CalCOFI,2105SH,038,,2105_038u,12-May-2021 20:35:05,12-May-2021 12:35:05,34.32508,-120.80524,080.0 055.0,080.0,055.0,490.000,494.124,,6.5992,,6.5921,,6.5957,34.2838,,34.2850,34.2869,,34.2888,34.2869,0.3725,,0.4557,0.4539,0.3832,,0.4563,0.4535,0.4537,16.198,19.4322,13.8336,16.665,22.6224,13.8372,13.8354,0.0355,,,,0.6191,,0.0000,,26.9149,,26.9183,,,,,,,,,,,6.5540,6.5469,0.8225,120.432,5.441,5.597,,,,,,,,,,,,
CalCOFI,2105SH,038,,2105_038u,12-May-2021 20:35:06,12-May-2021 12:35:06,34.32508,-120.80524,080.0 055.0,080.0,055.0,489.000,493.115,,6.6143,,6.6007,,6.6075,34.2852,,34.2864,34.2870,,34.2889,34.2877,0.3781,,0.4615,0.4596,0.3917,,0.4651,0.4621,0.4609,16.445,19.6904,14.1014,17.035,22.8892,14.2350,14.1682,0.0363,,,,0.6190,,0.0000,,26.9140,,26.9172,,,,,,,,,,,6.5691,6.5555,0.8225,120.521,5.526,5.722,,,,,,,,,,,,
CalCOFI,2105SH,038,,2105_038u,12-May-2021 20:35:07,12-May-2021 12:35:07,34.32508,-120.80524,080.0 055.0,080.0,055.0,488.000,492.105,,6.6221,,6.6259,,6.6240,34.2826,,34.2838,34.2840,,34.2859,34.2849,0.3801,,0.4636,0.4616,0.3870,,0.4603,0.4574,0.4595,16.530,19.7793,14.1936,16.829,22.9810,14.0135,14.1036,0.0359,,,,0.6189,,0.0000,,26.9109,,26.9115,,,,,,,,,,,6.5770,6.5807,0.8225,120.804,5.555,5.656,,,,,,,,,,,,
CalCOFI,2105SH,038,,2105_038u,12-May-2021 20:35:08,12-May-2021 12:35:08,34.32508,-120.80524,080.0 055.0,080.0,055.0,487.000,491.095,,6.6266,,6.6210,,6.6238,34.2812,,34.2824,34.2843,,34.2862,34.2843,0.3830,,0.4666,0.4646,0.3855,,0.4587,0.4558,0.4602,16.658,19.9131,14.3324,16.766,23.1192,13.9458,14.1391,0.0364,,,,0.6189,,0.0000,,26.9092,,26.9124,,,,,,,,,,,6.5816,6.5759,0.8225,120.956,5.599,5.634,,,,,,,,,,,,
CalCOFI,2105SH,038,,2105_038u,12-May-2021 20:35:10,12-May-2021 12:35:10,34.32508,-120.80524,080.0 055.0,080.0,055.0,486.000,490.086,,6.6278,,6.6126,,6.6202,34.2809,,34.2821,34.2857,,34.2876,34.2849,0.3842,,0.4679,0.4658,0.3858,,0.4590,0.4561,0.4610,16.709,19.9664,14.3877,16.779,23.1743,13.9597,14.1737,0.0354,,,,0.6190,,0.0000,,26.9088,,26.9145,,,,,,,,,,,6.5828,6.5677,0.8225,120.981,5.616,5.638,,,,,,,,,,,,
CalCOFI,2105SH,038,,2105_038u,12-May-2021 20:35:11,12-May-2021 12:35:11,34.32508,-120.80524,080.0 055.0,080.0,055.0,485.000,489.076,,6.6232,,6.6134,,6.6183,34.2825,,34.2837,34.2854,,34.2873,34.2855,0.3808,,0.4643,0.4624,0.3933,,0.4668,0.4637,0.4631,16.560,19.8106,14.2261,17.105,23.0134,14.3103,14.2682,0.0363,,,,0.6192,,0.0000,,26.9106,,26.9142,,,,,,,,,,,6.5783,6.5686,0.8225,120.785,5.565,5.747,,,,,,,,,,,,
CalCOFI,2105SH,038,,2105_038u,12-May-2021 20:35:12,12-May-2021 12:35:12,34.32510,-120.80524,080.0 055.0,080.0,055.0,484.000,488.067,,6.6194,,6.6153,,6.6174,34.2827,,34.2839,34.2851,,34.2870,34.2855,0.3817,,0.4653,0.4633,0.4001,,0.4738,0.4706,0.4670,16.597,19.8493,14.2662,17.400,23.0533,14.6275,14.4469,0.0354,,,,0.6194,,0.0000,,26.9113,,26.9137,,,,,,,,,,,6.5747,6.5706,0.8225,120.709,5.578,5.847,,,,,,,,,,,,
CalCOFI,2105SH,038,,2105_038u,12-May-2021 20:35:12,12-May-2021 12:35:12,34.32510,-120.80524,080.0 055.0,080.0,055.0,483.000,487.057,,6.6305,,6.6283,,6.6294,34.2781,,34.2793,34.2792,,34.2811,34.2802,0.3885,,0.4724,0.4702,0.4017,,0.4755,0.4722,0.4712,16.896,20.1619,14.5905,17.471,23.3762,14.7038,14.6472,0.0357,,,,0.6197,,0.0000,,26.9061,,26.9073,,,,,,,,,,,6.5858,6.5836,0.8225,121.186,5.679,5.872,,,,,,,,,,,,
CalCOFI,2105SH,038,,2105_038u,12-May-2021 20:35:13,12-May-2021 12:35:13,34.32510,-120.80524,080.0 055.0,080.0,055.0,482.000,486.047,,6.6274,,6.6290,,6.6282,34.2794,,34.2806,34.2761,,34.2780,34.2793,0.3977,,0.4820,0.4796,0.4052,,0.4791,0.4758,0.4777,17.294,20.5779,15.0221,17.623,23.8061,14.8673,14.9447,0.0365,,,,0.6200,,0.0000,,26.9076,,26.9048,,,,,,,,,,,6.5828,6.5844,0.8225,121.031,5.812,5.923,,,,,,,,,,,,
CalCOFI,2105SH,038,,2105_038u,12-May-2021 20:35:14,12-May-2021 12:35:14,34.32510,-120.80524,080.0 055.0,080.0,055.0,481.000,485.038,,6.6258,,6.6247,,6.6253,34.2758,,34.2770,34.2772,,34.2791,34.2781,0.3998,,0.4842,0.4818,0.4097,,0.4838,0.4803,0.4811,17.388,20.6762,15.1240,17.816,23.9076,15.0748,15.0994,0.0353,,,,0.6203,,0.0000,,26.9049,,26.9062,,,,,,,,,,,6.5813,6.5802,0.8225,121.264,5.843,5.987,,,,,,,,,,,,
CalCOFI,2105SH,038,,2105_038u,12-May-2021 20:35:15,12-May-2021 12:35:15,34.32510,-120.80524,080.0 055.0,080.0,055.0,480.000,484.028,,6.6218,,6.6212,,6.6215,34.2721,,34.2733,34.2739,,34.2758,34.2746,0.3999,,0.4843,0.4819,0.4094,,0.4835,0.4800,0.4810,17.391,20.6794,15.1273,17.806,23.9108,15.0641,15.0957,0.0361,,,,0.6206,,0.0000,,26.9025,,26.9040,,,,,,,,,,,6.5775,6.5769,0.8225,121.471,5.844,5.983,,,,,,,,,,,,
CalCOFI,2105SH,038,,2105_038u,12-May-2021 20:35:15,12-May-2021 12:35:15,34.32510,-120.80524,080.0 055.0,080.0,055.0,479.000,483.019,,6.6180,,6.6164,,6.6172,34.2717,,34.2729,34.2715,,34.2734,34.2732,0.3974,,0.4817,0.4793,0.4061,,0.4800,0.4767,0.4780,17.284,20.5675,15.0112,17.663,23.7953,14.9103,14.9608,0.0366,,,,0.6210,,0.0000,,26.9027,,26.9027,,,,,,,,,,,6.5738,6.5722,0.8225,121.429,5.808,5.935,,,,,,,,,,,,
CalCOFI,2105SH,038,,2105_038u,12-May-2021 20:35:16,12-May-2021 12:35:16,34.32510,-120.80524,080.0 055.0,080.0,055.0,478.000,482.009,,6.6144,,6.6136,,6.6140,34.2707,,34.2719,34.2699,,34.2718,34.2719,0.4003,,0.4847,0.4823,0.4106,,0.4847,0.4813,0.4818,17.409,20.6982,15.1468,17.856,23.9303,15.1178,15.1323,0.0362,,,,0.6214,,0.0000,,26.9024,,26.9019,,,,,,,,,,,6.5703,6.5695,0.8225,121.440,5.849,5.999,,,,,,,,,,,,
CalCOFI,2105SH,038,,2105_038u,12-May-2021 20:35:17,12-May-2021 12:35:17,34.32510,-120.80524,080.0 055.0,080.0,055.0,477.000,481.000,,6.6138,,6.6124,,6.6131,34.2702,,34.2714,34.2697,,34.2716,34.2715,0.4039,,0.4885,0.4860,0.4118,,0.4859,0.4825,0.4843,17.565,20.8613,15.3159,17.909,24.0988,15.1748,15.2454,0.0361,,,,0.6219,,0.0000,,26.9021,,26.9019,,,,,,,,,,,6.5697,6.5684,0.8225,121.453,5.901,6.017,,,,,,,,,,,,
CalCOFI,2105SH,038,,2105_038u,12-May-2021 20:35:18,12-May-2021 12:35:18,34.32511,-120.80524,080.0 055.0,080.0,055.0,476.000,479.990,,6.6079,,6.6133,,6.6106,34.2690,,34.2702,34.2703,,34.2722,34.2712,0.4025,,0.4870,0.4845,0.4064,,0.4803,0.4770,0.4808,17.507,20.8006,15.2530,17.674,24.0361,14.9221,15.0876,0.0364,,,,0.6224,,0.0000,,26.9019,,26.9022,,,,,,,,,,,6.5640,6.5693,0.8225,121.451,5.881,5.938,,,,,,,,,,,,
CalCOFI,2105SH,038,,2105_038u,12-May-2021 20:35:19,12-May-2021 12:35:19,34.32512,-120.80524,080.0 055.0,080.0,055.0,475.000,478.981,,6.5989,,6.6007,,6.5998,34.2655,,34.2667,34.2654,,34.2673,34.2670,0.4070,,0.4917,0.4891,0.4115,,0.4856,0.4822,0.4857,17.702,21.0045,15.4645,17.895,24.2467,15.1598,15.3122,0.0365,,,,0.6231,,0.0000,,26.9003,,26.9000,,,,,,,,,,,6.5552,6.5569,0.8225,121.575,5.945,6.010,,,,,,,,,,,,
CalCOFI,2105SH,038,,2105_038u,12-May-2021 20:35:21,12-May-2021 12:35:21,34.32512,-120.80524,080.0 055.0,080.0,055.0,474.000,477.971,,6.5967,,6.6006,,6.5987,34.2646,,34.2658,34.2659,,34.2678,34.2668,0.4030,,0.4876,0.4850,0.4161,,0.4904,0.4868,0.4859,17.529,20.8236,15.2769,18.094,24.0599,15.3738,15.3254,0.0360,,,,0.6238,,0.0000,,26.8999,,26.9004,,,,,,,,,,,6.5530,6.5569,0.8225,121.600,5.887,6.077,,,,,,,,,,,,
CalCOFI,2105SH,038,,2105_038u,12-May-2021 20:35:22,12-May-2021 12:35:22,34.32512,-120.80524,080.0 055.0,080.0,055.0,473.000,476.961,,6.5968,,6.5991,,6.5980,34.2645,,34.2657,34.2657,,34.2676,34.2667,0.4031,,0.4877,0.4851,0.4107,,0.4848,0.4814,0.4833,17.529,20.8236,15.2769,17.860,24.0599,15.1221,15.1995,0.0352,,,,0.6243,,0.0000,,26.8998,,26.9004,,,,,,,,,,,6.5532,6.5555,0.8225,121.591,5.887,5.998,,,,,,,,,,,,
CalCOFI,2105SH,038,,2105_038u,12-May-2021 20:35:23,12-May-2021 12:35:23,34.32512,-120.80524,080.0 055.0,080.0,055.0,472.000,475.952,,6.6010,,6.6004,,6.6007,34.2659,,34.2671,34.2666,,34.2685,34.2678,0.4030,,0.4876,0.4850,0.4107,,0.4848,0.4814,0.4832,17.525,20.8194,15.2726,17.861,24.0556,15.1232,15.1979,0.0349,,,,0.6247,,0.0000,,26.9003,,26.9009,,,,,,,,,,,6.5575,6.5569,0.8225,121.528,5.886,5.999,,,,,,,,,,,,
CalCOFI,2105SH,038,,2105_038u,12-May-2021 20:35:23,12-May-2021 12:35:23,34.32512,-120.80526,080.0 055.0,080.0,055.0,471.000,474.942,,6.5917,,6.5926,,6.5922,34.2644,,34.2656,34.2642,,34.2661,34.2659,0.4030,,0.4876,0.4850,0.4107,,0.4848,0.4814,0.4832,17.527,20.8215,15.2747,17.862,24.0577,15.1243,15.1995,0.0363,,,,0.6250,,0.0000,,26.9003,,26.9001,,,,,,,,,,,6.5483,6.5492,0.8225,121.504,5.885,5.998,,,,,,,,,,,,
CalCOFI,2105SH,038,,2105_038u,12-May-2021 20:35:24,12-May-2021 12:35:24,34.32514,-120.80526,080.0 055.0,080.0,055.0,470.000,473.933,,6.5849,,6.5851,,6.5850,34.2622,,34.2634,34.2620,,34.2639,34.2637,0.4047,,0.4893,0.4868,0.4137,,0.4879,0.4844,0.4856,17.600,20.8978,15.3539,17.992,24.1366,15.2641,15.3090,0.0360,,,,0.6254,,0.0000,,26.8995,,26.8993,,,,,,,,,,,6.5416,6.5418,0.8225,121.559,5.909,6.040,,,,,,,,,,,,
CalCOFI,2105SH,038,,2105_038u,12-May-2021 20:35:25,12-May-2021 12:35:25,34.32514,-120.80526,080.0 055.0,080.0,055.0,469.000,472.923,,6.5820,,6.5821,,6.5821,34.2608,,34.2620,34.2608,,34.2627,34.2624,0.4116,,0.4966,0.4938,0.4197,,0.4941,0.4905,0.4922,17.899,21.2104,15.6781,18.255,24.4595,15.5469,15.6125,0.0364,,,,0.6257,,0.0000,,26.8987,,26.8988,,,,,,,,,,,6.5388,6.5389,0.8225,121.612,6.009,6.128,,,,,,,,,,,,
CalCOFI,2105SH,038,,2105_038u,12-May-2021 20:35:26,12-May-2021 12:35:26,34.32514,-120.80526,080.0 055.0,080.0,055.0,468.000,471.914,,6.5816,,6.5814,,6.5815,34.2608,,34.2620,34.2608,,34.2627,34.2624,0.4092,,0.4940,0.4914,0.4173,,0.4916,0.4880,0.4897,17.795,21.1017,15.5654,18.150,24.3472,15.4340,15.4997,0.0361,,,,0.6260,,0.0000,,26.8988,,26.8988,,,,,,,,,,,6.5386,6.5384,0.8225,121.589,5.974,6.093,,,,,,,,,,,,
CalCOFI,2105SH,038,,2105_038u,12-May-2021 20:35:27,12-May-2021 12:35:27,34.32514,-120.80526,080.0 055.0,080.0,055.0,467.000,470.904,,6.5815,,6.5814,,6.5815,34.2607,,34.2619,34.2608,,34.2627,34.2623,0.4090,,0.4938,0.4912,0.4150,,0.4893,0.4857,0.4885,17.785,21.0912,15.5545,18.048,24.3364,15.3243,15.4394,0.0362,,,,0.6263,,0.0000,,26.8987,,26.8988,,,,,,,,,,,6.5386,6.5385,0.8225,121.580,5.970,6.059,,,,,,,,,,,,
CalCOFI,2105SH,038,,2105_038u,12-May-2021 20:35:28,12-May-2021 12:35:28,34.32514,-120.80526,080.0 055.0,080.0,055.0,466.000,469.895,,6.5820,,6.5830,,6.5825,34.2607,,34.2619,34.2608,,34.2627,34.2623,0.4076,,0.4924,0.4897,0.4147,,0.4889,0.4854,0.4876,17.729,21.0327,15.4938,18.036,24.2759,15.3114,15.4026,0.0361,,,,0.6265,,0.0000,,26.8986,,26.8986,,,,,,,,,,,6.5391,6.5402,0.8225,121.578,5.951,6.055,,,,,,,,,,,,
CalCOFI,2105SH,038,,2105_038u,12-May-2021 20:35:29,12-May-2021 12:35:29,34.32514,-120.80526,080.0 055.0,080.0,055.0,465.000,468.885,,6.5804,,6.5815,,6.5810,34.2605,,34.2617,34.2609,,34.2628,34.2623,0.4076,,0.4924,0.4897,0.4147,,0.4889,0.4854,0.4876,17.727,21.0306,15.4916,18.035,24.2737,15.3103,15.4010,0.0359,,,,0.6267,,0.0000,,26.8987,,26.8989,,,,,,,,,,,6.5377,6.5387,0.8225,121.555,5.951,6.054,,,,,,,,,,,,
CalCOFI,2105SH,038,,2105_038u,12-May-2021 20:35:30,12-May-2021 12:35:30,34.32515,-120.80526,080.0 055.0,080.0,055.0,464.000,467.876,,6.5786,,6.5797,,6.5792,34.2598,,34.2610,34.2602,,34.2621,34.2616,0.4076,,0.4924,0.4897,0.4147,,0.4889,0.4854,0.4876,17.726,21.0296,15.4905,18.033,24.2726,15.3082,15.3994,0.0359,,,,0.6269,,0.0000,,26.8983,,26.8986,,,,,,,,,,,6.5359,6.5370,0.8225,121.570,5.950,6.053,,,,,,,,,,,,
CalCOFI,2105SH,038,,2105_038u,12-May-2021 20:35:31,12-May-2021 12:35:31,34.32516,-120.80526,080.0 055.0,080.0,055.0,463.000,466.866,,6.5780,,6.5780,,6.5780,34.2593,,34.2605,34.2597,,34.2616,34.2611,0.4075,,0.4923,0.4896,0.4146,,0.4888,0.4853,0.4875,17.724,21.0275,15.4884,18.032,24.2705,15.3071,15.3978,0.0354,,,,0.6270,,0.0000,,26.8980,,26.8983,,,,,,,,,,,6.5355,6.5354,0.8225,121.585,5.949,6.053,,,,,,,,,,,,
CalCOFI,2105SH,038,,2105_038u,12-May-2021 20:35:32,12-May-2021 12:35:32,34.32516,-120.80526,080.0 055.0,080.0,055.0,462.000,465.857,,6.5783,,6.5780,,6.5782,34.2592,,34.2604,34.2598,,34.2617,34.2611,0.4075,,0.4923,0.4896,0.4146,,0.4888,0.4853,0.4875,17.721,21.0243,15.4851,18.029,24.2672,15.3039,15.3945,0.0357,,,,0.6272,,0.0000,,26.8979,,26.8984,,,,,,,,,,,6.5358,6.5356,0.8225,121.580,5.948,6.052,,,,,,,,,,,,
CalCOFI,2105SH,038,,2105_038u,12-May-2021 20:35:33,12-May-2021 12:35:33,34.32516,-120.80526,080.0 055.0,080.0,055.0,461.000,464.847,,6.5775,,6.5778,,6.5777,34.2591,,34.2603,34.2596,,34.2615,34.2609,0.4074,,0.4922,0.4895,0.4145,,0.4887,0.4852,0.4874,17.719,21.0222,15.4829,18.027,24.2651,15.3017,15.3923,0.0362,,,,0.6273,,0.0000,,26.8979,,26.8983,,,,,,,,,,,6.5351,6.5354,0.8225,121.562,5.948,6.051,,,,,,,,,,,,
CalCOFI,2105SH,038,,2105_038u,12-May-2021 20:35:34,12-May-2021 12:35:34,34.32516,-120.80526,080.0 055.0,080.0,055.0,460.000,463.838,,6.5817,,6.5803,,6.5810,34.2579,,34.2591,34.2602,,34.2621,34.2606,0.4073,,0.4921,0.4894,0.4144,,0.4886,0.4851,0.4873,17.715,21.0181,15.4786,18.024,24.2608,15.2985,15.3886,0.0360,,,,0.6274,,0.0000,,26.8964,,26.8984,,,,,,,,,,,6.5394,6.5380,0.8225,121.696,5.947,6.050,,,,,,,,,,,,
CalCOFI,2105SH,038,,2105_038u,12-May-2021 20:35:34,12-May-2021 12:35:34,34.32516,-120.80526,080.0 055.0,080.0,055.0,459.000,462.828,,6.6001,,6.5978,,6.5990,34.2573,,34.2585,34.2583,,34.2602,34.2594,0.4071,,0.4918,0.4892,0.4142,,0.4884,0.4849,0.4871,17.705,21.0076,15.4678,18.014,24.2500,15.2877,15.3778,0.0361,,,,0.6275,,0.0000,,26.8935,,26.8946,,,,,,,,,,,6.5579,6.5555,0.8225,121.975,5.946,6.049,,,,,,,,,,,,
CalCOFI,2105SH,038,,2105_038u,12-May-2021 20:35:35,12-May-2021 12:35:35,34.32516,-120.80528,080.0 055.0,080.0,055.0,458.000,461.819,,6.6388,,6.6215,,6.6302,34.2543,,34.2555,34.2578,,34.2597,34.2576,0.4067,,0.4914,0.4888,0.4177,,0.4921,0.4884,0.4886,17.685,20.9867,15.4461,18.166,24.2284,15.4512,15.4487,0.0359,,,,0.6277,,0.0000,,26.8860,,26.8910,,,,,,,,,,,6.5965,6.5793,0.8225,122.704,5.944,6.104,,,,,,,,,,,,
CalCOFI,2105SH,038,,2105_038u,12-May-2021 20:35:36,12-May-2021 12:35:36,34.32516,-120.80528,080.0 055.0,080.0,055.0,457.000,460.810,,6.6525,,6.6366,,6.6446,34.2552,,34.2564,34.2575,,34.2594,34.2579,0.4070,,0.4917,0.4891,0.4242,,0.4988,0.4950,0.4921,17.701,21.0034,15.4634,18.448,24.2456,15.7544,15.6089,0.0358,,,,0.6278,,0.0000,,26.8848,,26.8887,,,,,,,,,,,6.6102,6.5944,0.8225,122.815,5.952,6.201,,,,,,,,,,,,